STARLINK-4016, 52603

Orbit data source: Space-Track

STARLINK-4016, 52603 is a payload satellite owned by SpaceX/Seattle (US) in LEO that was launched on Sat, 14 May 2022 UTC via an FALCON 9 launch vehicle from the Air Force Eastern Test Range (AFETR). Payload-class satellites include a variety of spacecraft equipped with specific instruments for various scientific and technological missions. These include communications satellites like Starlink; space stations such as the ISS; scientific satellites like the Hubble; Earth observation satellites from companies like Planet Labs, Umbra, and HawkEye 360; GPS; miniature CubeSats for education and research; and military/defense satellites.

Loading next visibility...
Identifier
52603, 2022-052F
Orbit
LEO
Country
Flag of USUS
Related business
Manufacturer
SpaceX/Seattle
Mission
Operational Commercial Communications
Bus & Motor
STARLINK, Unknown motor
Mass
297 kg wet, ~275 kg dry
Launch date (UTC)
2022-05-14 (4 years ago)
Launch vehicle
FALCON 9
Launch site
Air Force Eastern Test Range (AFETR)
Object type
Payload
Rocket body
Debris
Shape & HBR
Box + 1 Pan, 10.1 m
Radar Cross Section
13.562 m², Large (>1 m²)

Expand to show TLE details & history
Last TLE update: 2 days ago

TLE from 2 days ago
0 STARLINK-4016
1 52603U 22052F   26171.41668980  .00114915  00000-0  45953-2 0  9995
2 52603  53.1600 177.3627 0001606  54.2036 356.3192 15.24212506  5720
Epoch: 2026-06-20T10:00Z
TLE epoch observation values (Epoch: 2026-06-20T10:00:01.998Z)
Latitude
38.27457°
Longitude
154.72873°
Altitude
495.28 km
Speed
7.623 km/s
True Right ascension
14h 13m 28s
True Declination
38° 06' 04"
Sunlit
Object was in daylight at epoch
Visualization orbit readout
Latitude
Unknown
Longitude
Unknown
Altitude
Unknown
Speed
Unknown
Apparent Right ascension
Unknown
Apparent Declination
Unknown
Sunlit
N/A
Visualization observer readout
Local Sidereal Time
21:31:28
Azimuth
Unknown
Elevation
Unknown
Doppler factor
Unknown
Orbital elements
Apogee altitude
494.51 km
Perigee altitude
492.303 km
Semi-major axis
6,871.544 km
Eccentricity
0.00016
Inclination
53.16°
RAAN
177.3627°
Arg. of periapsis
54.2036°
True anomaly
356.31802°
Mean anomaly
356.3192°
Eccentric anomaly
356.31861°
Mean motion
3.81032 °/min
Orbital period
94.48 mins
BSTAR
0.0045953
Loading maneuver chart data...
Computing Atmospheric mass density...
Loading historical data...
Loading historical data...
Loading historical data...
Loading historical data...
Loading historical data...
Loading historical data...
Loading historical data...

Documentation

Showing up to 5 results
|